Ana Sayfa
METAR-TAF:

METAR-TAF

Havaalanları :

Person County Airport

Roxboro, Kuzey Carolina, Amerika Birleşik Devletleri

Enlem: 36-17-06N, Boylam: 078-59-03W, yükseklik: 186 m

Güncel hava durumu gözlemi

Rapor saat 07:15 UTC de 22 dakika önce yapıldı.
Rüzgar güney/güneybatıdan 3 kt
Sıcaklık -1°C
Nem 86%
Basınç 1016 hPa
Görüş mesafesi: 16.1 km
Açık gökyüzü

METAR: KTDF 290715Z AUTO 20003KT 10SM CLR M01/M03 A3000 RMK AO2

Saat: 02:37 (07:37 UTC)


TAF: eksik

4.000'den fazla havaalanı için hava durumu gözlemleri ve tahminleri (METAR ve TAF raporları).

Kullanılabilir istasyonlar harita üzerinde sarı ve kırmızı noktalarla gösterilir.

İstasyonun adını görmek için fareyi noktanın üzerinde gezdirin.

Sonrasında hava gözlem ve tahminlerini görmek için tıklayın.

Haritayı değiştirmek için: yaklaştırmak için siyah artı işaretli yeşil düğmeye ve uzaklaştırmak için de eksi işaretli düğmeye hızla tıklayın; bitişik haritalar için yeşil okları kullanın.


METAR-TAF: